Voltar ao catálogo

SL-12 DEB

LostHEO
NORAD 28590·DEBRIS·🇷🇺 Russia

Lançado Jul 30, 1992 de Baikonur Cosmodrome

Loading…

Próximas Passagens (próximas 24 horas)

TLE

ObsoletoSource: Space-Track

Época: Jul 27, 2013, 23:43 UTC

1 28590U 92047Z   13208.98844579 -.00000018  00000-0  10000-3 0  9998
2 28590  64.5339 247.5473 4977512 355.5723   1.3900  4.38765476144881

Acompanhe SL-12 DEB em tempo real com AllMySat

Download on the App Store